sat.trackr.live / text

‹ back to catalog

UNKNOWN

NORAD 84932

UNKNOWN UNKNOWN UNKNOWN

§ Identity

Operator
Country
Launch date
Launch site
Launch vehicle
Mass (kg)
RCS (m²)

External: N2YO · Heavens-Above

§ Orbital elements

Epoch: 2026-09-18T10:41:59.146944Z

Period
479.70 min
Inclination
2.1859°
Eccentricity
0.6553785
Mean motion
3.00189499 rev/d
Perigee alt
617.3 km
Apogee alt
27,224.1 km
Semi-major
20,298.9 km
B*
-4.5298e-3
RAAN
80.0450°
Arg perigee
10.0081°
Mean anomaly
162.4555°
Rev number
14,018

§ Raw data

UNKNOWN1 84932U          26261.44582346 -.00000458  00000+0 -45298-2 0  99972 84932   2.1859  80.0450 6553785  10.0081 162.4555  3.00189499140184

JSON: /api/v1/satellites/84932 · /tle

For live sub-satellite position, see the globe view (requires WebGL).

§ Visibility from observer

Set your observer location to see the next 7 days of passes ≥ 10°. The values pass through the URL so the page stays shareable.

No JS? Fill the form by hand. The geolocation button needs JavaScript.